Regional Weather Roundup
Issued by NWS

Home | Current Version | Previous Version | Graphics & Text | Print | Product List | Glossary On
Versions: 1 2 3 4 5 6 7 8 9 10 11 12 13 14 15 16 17 18 19 20 21 22 23 24 25 26 27 28 29 30 31 32 33 34 35 36 37 38 39 40 41 42 43 44 45 46 47 48 49 50
000
ASUS43 KLOT 292008
RWRIL

ILLINOIS REGIONAL WEATHER ROUNDUP
NATIONAL WEATHER SERVICE CHICAGO/ROMEOVILLE IL
300 PM CDT WED JUL 29 2015

NOTE: "FAIR" INDICATES FEW OR NO CLOUDS BELOW 12,000 FEET WITH NO
SIGNIFICANT WEATHER AND/OR OBSTRUCTIONS TO VISIBILITY.

* THESE STATIONS ARE NOT UNDER NWS QUALITY CONTROL. THEY ALSO MAY NOT
  REPORT WEATHER SUCH AS PRECIPITATION OR FOG.

ILZ001-002-007-009-015-016-024-292100-
NORTHWEST ILLINOIS

CITY           SKY/WX    TMP DP  RH WIND       PRES   REMARKS
MOLINE         MOSUNNY   86  56  35 NW9       30.06S HX  85
STERLING*      SUNNY     82  55  39 NW15G24   30.03F HX  82
SAVANNA*       SUNNY     84  51  32 W10G17    30.04S HX  82
$$

ILZ003-004-008-010-011-017-018-292100-
NORTH CENTRAL ILLINOIS

CITY           SKY/WX    TMP DP  RH WIND       PRES   REMARKS
ROCKFORD       MOSUNNY   86  54  33 W14       30.03F HX  84
FREEPORT*      SUNNY     82  55  38 NW20G25   30.05S HX  82
ROCHELLE*      SUNNY     83  56  39 W15G21    30.04S HX  82
DE KALB*       MOSUNNY   83  57  41 W15G22    30.03F HX  82
PERU*          SUNNY     82  55  38 NW16      30.04F HX  82
$$

ILZ005-006-012>014-019>023-292100-
NORTHEAST ILLINOIS

CITY           SKY/WX    TMP DP  RH WIND       PRES   REMARKS
CHICAGO-OHARE  MOSUNNY   87  49  26 NW16      29.98S HX  84
CHICAGO-MIDWAY MOSUNNY   90  52  27 W6G21     29.97F HX  87
AURORA         SUNNY     83  58  42 W15G21    30.02S HX  83
LANSING*       SUNNY     87  53  31 W12       29.98S HX  85
JOLIET*        MOSUNNY   87  56  35 W10G17    30.01S HX  85
WAUKEGAN       SUNNY     84  55  36 W7G17     29.97F HX  83
DUPAGE AIRPORT SUNNY     85  52  32 W18       30.00S HX  83
KANKAKEE*      MOSUNNY   84  66  53 NW15G22   30.00F HX  86
WHEELING       SUNNY     87  50  27 W10G22    29.99S HX  84
MORRIS*        MOSUNNY   83  62  50 NW10      30.00F HX  83
ROMEOVILLE*    SUNNY     84  55  36 NW14      30.00F HX  83
$$

LMZ740>746-292100-
SOUTHERN LAKE MICHIGAN

STATION/POSITION SKY/WX   TEMP    WIND        PRES    VSBY  WAVE
                          AIR SEA DIR/SP/G                  HT/PER
                          (F)     (DEG/KT/KT) (MB)    (MI)  (FT/S)
HARRISON CRIB              77      70/  4/  6   N/A
BURNHAM HARBOR             88     260/  9/ 13   N/A
CALUMET HARBOR             81                   N/A
BURNS HARBOR               79      50/  6/  7 1015.9F
MICHIGAN CITY              79     270/  1/  2   N/A
MICHIGAN CITY 6N           77 77  360/  4/  6   N/A           1
ST. JOSEPH                 76 76  330/  6/  8   N/A           1/ 2
$$

ILZ025>027-034>036-040-047-049-050-058-095>099-292100-
WEST-CENTRAL ILLINOIS

CITY           SKY/WX    TMP DP  RH WIND       PRES   REMARKS
QUINCY         PTSUNNY   84  62  47 N12       30.10S HX  85
GALESBURG*     MOSUNNY   82  59  46 NW8       30.09S HX  82
MACOMB*        MOSUNNY   84  58  42 NW7       30.11R HX  83
JACKSONVILLE*  MOSUNNY   87  67  51 NW9       30.06S HX  90
PITTSFIELD*    MOSUNNY   85  62  45 N10       30.09S HX  85
$$

ILZ028>032-037-038-041>044-048-051>054-059>061-292100-
CENTRAL ILLINOIS

CITY           SKY/WX    TMP DP  RH WIND       PRES   REMARKS
PONTIAC        MOSUNNY   83  68  59 NW10      30.03F HX  87
BLOOMINGTON    MOSUNNY   86  69  56 N16       30.05F HX  90
DECATUR        PTSUNNY   87  72  60 N13       30.03F HX  93
PEORIA         MOSUNNY   86  58  38 NW6       30.05F HX  85
LACON*         SUNNY     83  54  37 NW9G16    30.04S HX  82
LINCOLN*       MOSUNNY   89  67  47 NW5       30.02F HX  92
SPRINGFIELD    MOSUNNY   87  66  49 N8        30.05S HX  89
TAYLORVILLE    PTSUNNY   82  73  74 N9        30.03F HX  88
$$

ILZ033-039-045-046-055>057-062-063-292100-
EAST-CENTRAL ILLINOIS

CITY           SKY/WX    TMP DP  RH WIND       PRES   REMARKS
CHAMPAIGN      PTSUNNY   85  72  65 NW13      30.02F HX  91
DANVILLE*      MOSUNNY   85  76  74 NW12G17   29.98S HX  94
RANTOUL*       MOSUNNY   86  69  56 NW13      30.02S HX  90
MATTOON        PTSUNNY   86  74  67 N10       30.00F HX  94
PARIS*         PTSUNNY   86  76  72 NW9       30.01S THUNDER HX  96
$$

ILZ079-100>102-292100-
SOUTHWEST ILLINOIS

CITY           SKY/WX    TMP DP  RH WIND       PRES   REMARKS
ALTON          PTSUNNY   84  73  70 NW10      30.05S HX  91
BELLEVILLE     SUNNY     90  77  65 VRB3      30.01F HX 102
CAHOKIA*       MOSUNNY   91  72  53 N12       30.03S HX  98
SPARTA*        SUNNY     87  75  67 NW10G16   30.03F HX  97
$$

ILZ064>066-069>071-074>076-080>082-084>086-088>090-092>094-292100-
SOUTH-CENTRAL ILLINOIS

CITY           SKY/WX    TMP DP  RH WIND       PRES   REMARKS
CARBONDALE     MOSUNNY   90  79  70 N14       30.00R HX 106
CAIRO*         SUNNY     94  78  60 W8        29.97F HX 109
EFFINGHAM*     CLOUDY    86  75  68 NW8       30.02S HAZE    HX  95
MARION         TSTM      84  75  74 W8        30.01R HX  92
MT. VERNON     SUNNY     88  73  62 N8        30.02R HX  96
CENTRALIA*     MOSUNNY   87  74  66 N9G17     30.03R HX  95
SALEM*         MOSUNNY   86  77  73 NW6       30.02S HX  97
METROPOLIS*    SUNNY     95  79  59 W8        29.97F HX 112
$$

ILZ067-068-072-073-078-083-087-091-292100-
SOUTHEAST ILLINOIS

CITY           SKY/WX    TMP DP  RH WIND       PRES   REMARKS
LAWRENCEVILLE  LGT RAIN  78  72  81 SW8       29.99R HX  80
FLORA*         CLOUDY    88  77  69 NW8       30.01R HX 100
FAIRFIELD*     CLOUDY    82  76  82 CALM      29.99R HX  89
HARRISBURG*    SUNNY     94  76  56 W7        29.99S HX 107
ROBINSON*      CLOUDY    85  78  80 NW6       29.99R HX  97
CARMI*         HVY RAIN  78  71  76 MISG      29.99R HX  81
$$

ABBREVIATIONS USED IN REMARKS
   TC - TEMPERATURE IN CELSIUS
  WCI - WIND CHILL INDEX
   HX - HEAT INDEX
  VSB - VISIBILITY
$$



USA.gov is the U.S. government's official web portal to all federal, state and local government web resources and services.